Tracking 25934 objects as of 11-Aug-2022
HD Live streaming from Space Station
objects crossing your sky now

SL-12 R/B(2)

Track SL-12 R/B(2) now!


NORAD ID: 33111
Int'l Code: 2008-033D
Perigee: 35,657.0 km
Apogee: 35,910.5 km
Inclination: 7.9 °
Period: 1,435.6 minutes
Semi major axis: 42154 km
RCS: 2.244 m2 (large)
Launch date: June 27, 2008
Source: Commonwealth of Independent States (former USSR) (CIS)
Launch site: TYURATAM MISSILE AND SPACE COMPLEX (TTMTR)

Note: This is a ROCKET BODY
aabbcc
Your satellite tracking list
Your tracking list is empty




NASA's NSSDC Master Catalog

Two Line Element Set (TLE):
1 33111U 08033D   22222.54893314 -.00000156  00000-0  00000+0 0  9992
2 33111   7.8733  50.6237 0030060 311.1876 233.6233  1.00307400 51696
Source of the keplerian elements: AFSPC